Kuiper-00051

operational
NORAD ID: 64511 Int'l Des: 2025-134 Owner: KUIP Country: US Constellation: kuiper
LEOCIRCULAR

Über Kuiper-00051

Beschreibung wird geladen...

Live-Position

3D-Globus wird geladen...

Nächste Überflüge

Höhenverlauf

Altitude vs Time

uPlot chart will show altitude changes over time

Zweizeiliger Elementsatz

1 64511U 25134M 25340.85065328 -.00006349 00000-0 -80591-3 0 9993
2 64511 51.9027 277.1529 0001638 12.1924 347.9078 14.79861495 26418
Epoch: 6. Dez. 2025 • Age: 15 hours

Aktueller Status

Höhe 635.6 km
Geschwindigkeit 7.55 km/s
Subsatellitenpunkt 50.90°N, 132.44°E
Startdatum 23. Juni 2025
Alter 0.4 years
Typ internet

Technische Details

Klassifizierung Payload
Masse 490.00 kg
Trockenmasse 490.00 kg
Gesamtmasse 490.00 kg
Länge 1.80 m
Durchmesser 0.70 m
Spannweite 5.00 m
Form Box + 2 pan
Hersteller KUIP
Bus-Typ Kuiper
Phasenstatus In Orbit
Besitzer/Staat KUIP/US

Große Konstellationen

Loading constellations...